Location: ??
(35.5672°N, 139.6509°E)
Time: 11:57:34
(UTC+00:00)

CZ-2D R/B - Pass Details

Date: 03 August 2024
Orbit: 790 x 842 km, 98.8° (Epoch: 08 September)

Event Time Altitude Azimuth Distance (km) Brightness Sun altitude
Rises 17:41:34 0° 358° (N) 3,312 5.9 -23.0°
Reaches altitude 10° 17:44:15 10° 346° (NNW) 2,385 4.9 -22.6°
Maximum altitude 17:48:27 25° 293° (WNW) 1,595 3.4 -22.0°
Enters shadow 17:48:43 25° 288° (WNW) 1,600 3.4 -22.0°
